Skip Page Navigation
NASA JPL Caltech
NASA Logo - Jet Propulsion Laboratory + View the NASA Portal
+ Near-Earth Object (NEO) Program
Search JPL
JPL Home Earth Solar System Stars & Galaxies Technology
JPL Solar System Dynamics
BODIES ORBITS EPHEMERIDES TOOLS PHYSICAL DATA DISCOVERY FAQ SITE MAP
JPL Small-Body Database Browser
Search: [ help ]  
17721 (1997 XT10)
Classification: Main-belt Asteroid          SPK-ID: 2017721
Ephemeris | Orbit Diagram | Orbital Elements | Physical Parameters | Discovery Circumstances | Close-Approach Data ]

[ show orbit diagram ]
Orbital Elements at Epoch 2457000.5 (2014-Dec-09.0) TDB
Reference: JPL 14 (heliocentric ecliptic J2000)
 Element Value Uncertainty (1-sigma)   Units 
e .2632524243761809 7.1072e-08  
a 3.066387350584692 2.5517e-08 AU
q 2.259153446466818 2.1073e-07 AU
i 13.3041230230944 6.9909e-06 deg
node 304.3470143536853 2.6764e-05 deg
peri 216.0659639359777 2.8384e-05 deg
M 55.07311952734504 9.9057e-06 deg
tp 2456700.462094390738
(2014-Feb-11.96209439)
5.2957e-05 JED
period 1961.277061229536
5.37
2.4481e-05
6.703e-08
d
yr
n .1835538726865616 2.2911e-09 deg/d
Q 3.873621254702567 3.2234e-08 AU
  Orbit Determination Parameters
   # obs. used (total)      704  
   data-arc span      10362 days (28.37 yr)  
   first obs. used      1987-01-26  
   last obs. used      2015-06-10  
   planetary ephem.      DE431  
   SB-pert. ephem.      SB431-BIG16  
   condition code      0  
   fit RMS      .52796  
   data source      ORB  
   producer      Otto Matic  
   solution date      2015-Jul-06 12:21:26  

Additional Information
 Earth MOID = 1.28413 AU 
 T_jup = 3.138 
[ show covariance matrix ]

Ephemeris | Orbit Diagram | Orbital Elements | Physical Parameters | Discovery Circumstances | Close-Approach Data ]

Physical Parameter Table
Parameter Symbol Value Units Sigma Reference Notes
absolute magnitude H 13.2 mag n/a MPO319307  

17721 (1997 XT10)          Discovered 1997-Dec-10 by Beijing Schmidt CCD Asteroid Program at Xinglong
Reference: 20001013/Numbers.arcLast Updated: 2004-04-19

[ show close-approach data ]
Alternate Designations
 1997 XT10 = 1987 BG 
Ephemeris | Orbit Diagram | Orbital Elements | Physical Parameters | Discovery Circumstances | Close-Approach Data ]
ABOUT SSD CREDITS/AWARDS PRIVACY/COPYRIGHT GLOSSARY LINKS
FirstGov 2015-Aug-31 08:50 UT
(server date/time)  
NASA Home Page
Site Manager:   Ryan S. Park
Webmaster  Alan B. Chamberlin